This demonstration page uses our WeatherBlox Daily Observations layout. Learn more.

Left ArrowRight Arrow

Hourly Observations for January 28, 2015

Temp ( °F °C ) Dew Point ( °F °C ) Humidity (%) Winds ( mph kmh ) Pressure ( in mb ) Visibility ( mi km ) Precip ( " mm )
12:10 am 00:10 Mostly Cloudy 37 3 27 -3 65 65 undefined N/A 30.18 1022 10 16 0.00 0.00
12:53 am 00:53 Cloudy 37 2.8 26 -3.3 65 65 N 12 19 30.12 1020 10 16 0.00 0.00
1:53 am 01:53 Cloudy 37 2.8 26 -3.3 65 65 N 9 15 30.11 1020 10 16 0.00 0.00
2:33 am 02:33 Partly Cloudy 35 1.7 25 -3.9 67 67 NNW 7 11 30.18 1022 10 16 0.00 0.00
2:53 am 02:53 Clear 35 1.7 24 -4.4 64 64 NNW 7 11 30.13 1020 10 16 0.00 0.00
3:53 am 03:53 Clear 34 1.1 24 -4.4 67 67 NNW 7 11 30.15 1021 10 16 0.00 0.00
4:53 am 04:53 Clear 32 0 24 -4.4 73 73 NW 10 17 30.17 1022 10 16 0.00 0.00
5:53 am 05:53 Clear 33 0.6 24 -4.4 70 70 NW 7 11 30.20 1023 10 16 0.00 0.00
6:53 am 06:53 Clear 32 0 24 -4.4 73 73 N 7 11 30.24 1024 10 16 0.00 0.00
7:53 am 07:53 Sunny 31 -0.6 24 -4.4 76 76 NNW 3 6 30.27 1025 10 16 0.00 0.00
8:53 am 08:53 Sunny 34 1.1 24 -4.4 67 67 N 5 7 30.27 1025 10 16 0.00 0.00
9:53 am 09:53 Sunny 38 3.3 24 -4.4 57 57 NNW 7 11 30.29 1026 10 16 0.00 0.00
10:53 am 10:53 Sunny 41 5 23 -5 49 49 N 8 13 30.30 1026 10 16 0.00 0.00
11:53 am 11:53 Sunny 44 6.7 21 -6.1 40 40 NNW 6 9 30.30 1026 10 16 0.00 0.00
12:53 pm 12:53 Sunny 48 8.9 23 -5 37 37 NW 3 6 30.27 1025 10 16 0.00 0.00
1:53 pm 13:53 Sunny 51 10.6 22 -5.6 32 32 VRB 3 6 30.24 1024 10 16 0.00 0.00
2:53 pm 14:53 Sunny 52 11.1 21 -6.1 30 30 Calm 30.23 1024 10 16 0.00 0.00
3:53 pm 15:53 Sunny 54 12.2 21 -6.1 28 28 VRB 5 7 30.23 1024 10 16 0.00 0.00
4:53 pm 16:53 Sunny 54 12.2 19 -7.2 25 25 Calm 30.23 1024 10 16 0.00 0.00
5:53 pm 17:53 Sunny 52 11.1 20 -6.7 28 28 WNW 3 6 30.24 1024 10 16 0.00 0.00
6:53 pm 18:53 Clear 43 6.1 26 -3.3 51 51 Calm 30.25 1024 10 16 0.00 0.00
7:53 pm 19:53 Clear 41 5 28 -2.2 60 60 Calm 30.26 1025 10 16 0.00 0.00
8:53 pm 20:53 Clear 37 2.8 27 -2.8 67 67 Calm 30.28 1025 10 16 0.00 0.00
9:53 pm 21:53 Clear 35 1.7 28 -2.2 76 76 Calm 30.30 1026 10 16 0.00 0.00
10:53 pm 22:53 Clear 33 0.6 27 -2.8 78 78 Calm 30.28 1026 10 16 0.00 0.00
11:53 pm 23:53 Clear 34 1.1 26 -3.3 73 73 Calm 30.28 1025 10 16 0.00 0.00

Powered by AerisWeather